Change the Weather History Date:

Wednesday, June 6, 2012

  Actual Average Record
Temperature  
Mean Temperature 65 °F -  
Max Temperature 80 °F 86 °F 103 °F (1978)
Min Temperature 52 °F 53 °F 43 °F (1954)
Growing Degree Days 15 (Base 50)    
Moisture  
Dew Point 40 °F    
Average Humidity 39    
Maximum Humidity 59    
Minimum Humidity 21    
Precipitation  
Precipitation 0.00 in - - ()
Sea Level Pressure  
Sea Level Pressure 30.01 in    
Wind  
Wind Speed 8 mph (WSW)    
Max Wind Speed 15 mph    
Max Gust Speed 21 mph    
Visibility 10 miles    
Events      
Averages and records for this station are not official NWS values.
T = Trace of Precipitation, MM = Missing Value Source: NWS Daily Summary

Daily Weather History Graph

Daily Weather History Graph

Search for Another Location

Airport or City:

Trip Planner

Search our weather history database for the weather conditions in past years. The results will help you decide how hot, cold, wet, or windy it might be!

Date:

Astronomy

Jun. 06, 2012 Rise Set
Actual Time 5:44 AM PDT 8:29 PM PDT
Civil Twilight 5:12 AM PDT 9:00 PM PDT
Nautical Twilight 4:33 AM PDT 9:40 PM PDT
Astronomical Twilight 3:49 AM PDT 10:24 PM PDT
Moon 10:46 PM PDT (6/6) 8:10 AM PDT (6/6)
Length of Visible Light 15h 47m
Length of Day
14h 45m
Waning Gibbous, 92% of the Moon is Illuminated
Jun 6
Waning Gibbous
Jun 11
Last Quarter
Jun 19
New
Jun 26
First Quarter
Jul 3
Full

Hourly Weather History & Observations

Time (PDT) Temp. Dew Point Humidity Pressure Visibility Wind Dir Wind Speed Gust Speed Precip Events Conditions
12:53 AM 60.1 °F 39.9 °F 47% 30.08 in 10.0 mi NW 11.5 mph - N/A   Clear
1:53 AM 59.0 °F 41.0 °F 51% 30.08 in 10.0 mi NW 13.8 mph - N/A   Clear
2:53 AM 57.9 °F 41.0 °F 53% 30.07 in 10.0 mi NW 10.4 mph - N/A   Clear
3:53 AM 57.0 °F 39.0 °F 51% 30.07 in 10.0 mi NW 8.1 mph - N/A   Clear
4:53 AM 55.9 °F 37.9 °F 51% 30.06 in 10.0 mi NW 4.6 mph - N/A   Clear
5:53 AM 52.0 °F 37.9 °F 59% 30.06 in 10.0 mi Calm Calm - N/A   Clear
6:53 AM 57.0 °F 42.1 °F 57% 30.06 in 10.0 mi SE 3.5 mph - N/A   Clear
7:53 AM 61.0 °F 42.1 °F 50% 30.07 in 10.0 mi Calm Calm - N/A   Clear
8:53 AM 66.9 °F 37.0 °F 33% 30.07 in 10.0 mi Variable 4.6 mph - N/A   Clear
9:53 AM 69.1 °F 36.0 °F 30% 30.06 in 10.0 mi Variable 3.5 mph - N/A   Clear
10:53 AM 73.0 °F 37.0 °F 27% 30.04 in 10.0 mi Variable 3.5 mph - N/A   Clear
11:53 AM 75.0 °F 36.0 °F 24% 30.02 in 10.0 mi Calm Calm - N/A   Clear
12:53 PM 77.0 °F 34.0 °F 21% 30.01 in 10.0 mi Variable 6.9 mph - N/A   Clear
3:53 PM 78.1 °F 44.1 °F 30% 29.95 in 10.0 mi SSW 10.4 mph 20.7 mph N/A   Clear
4:53 PM 78.1 °F 42.1 °F 28% 29.93 in 10.0 mi SSW 12.7 mph 19.6 mph N/A   Clear
5:53 PM 75.9 °F 42.1 °F 30% 29.92 in 10.0 mi SSW 15.0 mph 20.7 mph N/A   Clear
6:53 PM 75.0 °F 41.0 °F 29% 29.91 in 10.0 mi SW 12.7 mph - N/A   Clear
7:53 PM 73.0 °F 41.0 °F 31% 29.92 in 10.0 mi SW 8.1 mph - N/A   Clear
8:53 PM 70.0 °F 41.0 °F 35% 29.92 in 10.0 mi SSW 3.5 mph - N/A   Clear
9:53 PM 68.0 °F 42.1 °F 39% 29.94 in 10.0 mi SSW 3.5 mph - N/A   Clear
10:53 PM 63.0 °F 45.0 °F 52% 29.94 in 10.0 mi SSW 3.5 mph - N/A   Clear